Volver al catálogo

STARLINK-5456

ActivoComunicacionesVLEO
NORAD 55667·PAYLOAD·🇺🇸 United States

Lanzado Feb 17, 2023 desde Vandenberg Space Force Base

Loading…

Próximos Pases (próximas 24 horas)

TLE

ActualizadoSource: CelesTrak SupGP

Época: Sep 15, 2026, 02:48 UTC

1 55667C 23021AR  26258.11715278 -.00031483  00000+0 -26391-2 0  2583
2 55667  70.0020  46.7259 0002570 271.2644  23.5560 14.98336476    16

Sigue STARLINK-5456 en tiempo real con AllMySat

Download on the App Store